{"data":{"norad_id":53545,"intl_designator":"2022-101U","name":"STARLINK-4475","alt_names":[],"object_type":"PAYLOAD","status":"ACTIVE","operator":null,"country":"US","launch_date":"2022-08-19","launch_site_code":"AFETR","launch_vehicle":null,"mission":null,"orbit_class":"UNKNOWN","rcs_meters":null,"size_class":null,"mass_kg":null,"dimensions":null,"purposes":["comms"],"wikipedia_slug":null,"has_3d_model":false,"image_url":null,"decayed_at":null,"tle_current":{"epoch":"2026-05-25T03:22:22.910016Z","epoch_age_seconds":58901,"freshness":"FRESH","line1":"1 53545U 22101U   26145.14054294  .00002666  00000+0  18547-3 0  9992","line2":"2 53545  53.2150  80.9148 0001932  60.5296 299.5888 15.08856577208532","mean_motion":15.08856577,"eccentricity":0.0001932,"inclination_deg":53.215,"raan_deg":80.9148,"arg_perigee_deg":60.5296,"mean_anomaly_deg":299.5888,"bstar":0.00018547,"rev_number":20853,"period_min":95.43650615641,"perigee_km":538.35619546879,"apogee_km":541.02924487267,"semimajor_km":6917.8297201707,"source":"CELESTRAK","updated_at":"2026-05-25T13:38:17.443192Z"}}}